WXM80 ListenWXM80 Stop

You find our weather info also at:

UK Metoffice

WeatherCloud

Weather Underground

Northeastern Weather Network

AWEKAS

Citizen Weather Observer Program (CWOP)

HAMweather, WeatherForYou, PWS Weather


Weather Underground History page Text

Daily Summary for June 9, 2017 Units:  Metric    English   Both
« Previous Day
Next Day »
Daily Weekly Monthly Yearly Custom
  High: Low: Average:
Temperature: 28.9 °C 11.8 °C 21.8 °C
Dew Point: 15.9 °C 9.7 °C 13.1 °C
Humidity: 89 % 39 % 60 %
Wind Speed: 13.4 km/h 0 km/h 2.9 km/h
Wind Gust: 22.2 km/h - -
Wind:- - SSW
Pressure: 1010 hPa 1005 hPa -
Precipitation: 0 mm    
Historical Graphs
 
 
Tabular Data for June 9, 2017
Time Temperature Dew Point Pressure Wind Wind Speed Wind Gust Humidity Rainfall Rate (Hourly)
00:03 13.9 °C 11.9 °C 1008 hPa NE 0.2 km/h 1.9 km/h 88 % 0 mm
00:08 13.9 °C 11.9 °C 1008 hPa NE 0.3 km/h 5.6 km/h 88 % 0 mm
00:13 13.9 °C 11.9 °C 1008 hPa NNE 5.8 km/h 7.4 km/h 88 % 0 mm
00:19 13.9 °C 11.9 °C 1008 hPa NNE 3.9 km/h 7.4 km/h 88 % 0 mm
00:24 13.9 °C 11.9 °C 1007.7 hPa NNE 3.7 km/h 6.4 km/h 88 % 0 mm
00:29 13.9 °C 12.1 °C 1007.7 hPa NNE 4.5 km/h 7.4 km/h 89 % 0 mm
00:34 13.9 °C 12.1 °C 1007.7 hPa NNE 1.8 km/h 5.6 km/h 89 % 0 mm
00:39 13.9 °C 12.1 °C 1007.7 hPa NNE 1.8 km/h 5.6 km/h 89 % 0 mm
00:44 13.9 °C 12.2 °C 1007.7 hPa NNE 4.5 km/h 9.3 km/h 89 % 0 mm
00:49 13.9 °C 12.2 °C 1007.7 hPa North 5.1 km/h 11.1 km/h 89 % 0 mm
00:54 13.9 °C 11.9 °C 1007.7 hPa NNE 2.4 km/h 8 km/h 88 % 0 mm
00:59 13.9 °C 11.8 °C 1007.7 hPa North 3.5 km/h 7.4 km/h 87 % 0 mm
01:04 13.8 °C 11.6 °C 1007.3 hPa NNE 5.8 km/h 7.4 km/h 86 % 0 mm
01:09 13.8 °C 11.5 °C 1007.3 hPa NNE 7.1 km/h 9.3 km/h 86 % 0 mm
01:14 13.8 °C 11.5 °C 1007.3 hPa NNE 2.9 km/h 7.4 km/h 86 % 0 mm
01:19 13.8 °C 11.5 °C 1007.3 hPa North 2.3 km/h 5.6 km/h 86 % 0 mm
01:24 13.8 °C 11.3 °C 1007.3 hPa NNE 5.5 km/h 7.4 km/h 85 % 0 mm
01:29 13.8 °C 11.3 °C 1007.3 hPa NNE 2.3 km/h 5.6 km/h 85 % 0 mm
01:34 13.7 °C 11 °C 1007.3 hPa NNE 1.4 km/h 5.6 km/h 84 % 0 mm
01:35 13.7 °C 11.1 °C 1007.3 hPa NNE 3.2 km/h 5.6 km/h 84 % 0 mm
01:40 13.6 °C 10.8 °C 1007.3 hPa North 0.8 km/h 5.6 km/h 83 % 0 mm
01:45 13.6 °C 10.8 °C 1007.3 hPa NNE 1.1 km/h 5.6 km/h 83 % 0 mm
01:50 13.6 °C 10.7 °C 1007.3 hPa NNE 3.1 km/h 5.6 km/h 83 % 0 mm
01:55 13.6 °C 10.7 °C 1007.3 hPa NNE 0.3 km/h 1.9 km/h 83 % 0 mm
02:00 13.6 °C 10.6 °C 1007.3 hPa North 0.3 km/h 3.7 km/h 82 % 0 mm
02:05 13.5 °C 10.5 °C 1007.3 hPa North 1.8 km/h 3.7 km/h 82 % 0 mm
02:10 13.5 °C 10.5 °C 1007 hPa NW 1 km/h 6.4 km/h 82 % 0 mm
02:15 13.5 °C 10.5 °C 1007 hPa NW 1.8 km/h 5.6 km/h 82 % 0 mm
02:20 13.5 °C 10.3 °C 1006.7 hPa NW 1.3 km/h 3.7 km/h 81 % 0 mm
02:25 13.5 °C 10.5 °C 1006.7 hPa North 0.8 km/h 3.2 km/h 82 % 0 mm
02:30 13.5 °C 10.5 °C 1006.7 hPa North 1.4 km/h 5.6 km/h 82 % 0 mm
02:35 13.4 °C 10.6 °C 1006.3 hPa North 1.6 km/h 5.6 km/h 83 % 0 mm
02:40 13.4 °C 10.8 °C 1006.3 hPa Calm     84 % 0 mm
02:45 13.4 °C 10.7 °C 1006.3 hPa Calm     84 % 0 mm
02:50 13.3 °C 10.7 °C 1006.3 hPa North 0.2 km/h 1.9 km/h 84 % 0 mm
02:55 13.3 °C 10.6 °C 1006.3 hPa North 1 km/h 1.9 km/h 84 % 0 mm
03:00 13.2 °C 10.6 °C 1006.3 hPa North 1.9 km/h 5.6 km/h 84 % 0 mm
03:05 13.2 °C 10.7 °C 1006 hPa Calm     85 % 0 mm
03:10 13.1 °C 10.7 °C 1006 hPa Calm     85 % 0 mm
03:15 13.1 °C 10.6 °C 1006 hPa Calm     85 % 0 mm
03:20 12.9 °C 10.5 °C 1006 hPa Calm   1.9 km/h 85 % 0 mm
03:21 12.9 °C 10.5 °C 1005.6 hPa Calm     85 % 0 mm
03:26 12.9 °C 10.4 °C 1005.6 hPa Calm     85 % 0 mm
03:31 12.8 °C 10.6 °C 1005.6 hPa Calm     86 % 0 mm
03:36 12.7 °C 10.4 °C 1005.3 hPa Calm     86 % 0 mm
03:41 12.7 °C 10.4 °C 1005.6 hPa Calm     86 % 0 mm
03:46 12.5 °C 10.2 °C 1005.6 hPa Calm     86 % 0 mm
03:51 12.4 °C 10.1 °C 1005.3 hPa Calm     86 % 0 mm
03:56 12.2 °C 10.1 °C 1005.3 hPa North 0.2 km/h   87 % 0 mm
04:01 12.1 °C 10 °C 1005.3 hPa Calm     87 % 0 mm
04:06 11.9 °C 9.8 °C 1005.3 hPa North 0.2 km/h   87 % 0 mm
04:11 11.8 °C 9.7 °C 1005.3 hPa Calm     87 % 0 mm
04:12 11.8 °C 9.7 °C 1005.3 hPa Calm     87 % 0 mm
09:33 17.7 °C 12.6 °C 1006 hPa SW 2.1 km/h 13 km/h 72 % 0 mm
09:35 17.7 °C 12.6 °C 1006 hPa WSW 5.1 km/h 8 km/h 72 % 0 mm
09:40 17.9 °C 13.2 °C 1006 hPa West 4.5 km/h 11.3 km/h 74 % 0 mm
09:45 18.2 °C 13.1 °C 1006 hPa WSW 4.7 km/h 7.4 km/h 72 % 0 mm
09:50 18.4 °C 13.2 °C 1006 hPa West 0.2 km/h 1.9 km/h 72 % 0 mm
09:55 18.7 °C 13.3 °C 1006 hPa WSW 6 km/h 11.1 km/h 71 % 0 mm
10:00 19 °C 13.2 °C 1006 hPa West 1 km/h 7.4 km/h 69 % 0 mm
10:05 19.3 °C 13.7 °C 1006 hPa WSW 1.8 km/h 5.6 km/h 70 % 0 mm
10:10 19.5 °C 13.7 °C 1006 hPa SW 1.8 km/h 8 km/h 69 % 0 mm
10:15 19.8 °C 13.7 °C 1006 hPa WSW 7.7 km/h 9.7 km/h 68 % 0 mm
10:20 20 °C 13.7 °C 1006 hPa NW 5.3 km/h 9.3 km/h 67 % 0 mm
10:25 20.2 °C 13.9 °C 1006 hPa SW 6.4 km/h 9.7 km/h 67 % 0 mm
10:30 20.6 °C 14.3 °C 1006.3 hPa NW 4.5 km/h 9.3 km/h 67 % 0 mm
10:35 21 °C 14.9 °C 1006 hPa NNW 2.4 km/h 5.6 km/h 68 % 0 mm
10:40 21.3 °C 14.4 °C 1006.3 hPa NW 2.4 km/h 5.6 km/h 65 % 0 mm
10:45 21.6 °C 13.9 °C 1006.3 hPa WNW 4.8 km/h 8 km/h 62 % 0 mm
10:50 21.9 °C 13.3 °C 1006.3 hPa NNW 8.2 km/h 12.9 km/h 58 % 0 mm
10:57 22.2 °C 14.1 °C 1006.3 hPa WSW 7.1 km/h 12.9 km/h 60 % 0 mm
11:02 22.4 °C 13.5 °C 1006.3 hPa SW 8.4 km/h 13 km/h 57 % 0 mm
11:07 22.7 °C 14.1 °C 1006.3 hPa SW 3.9 km/h 11.3 km/h 58 % 0 mm
11:12 23.1 °C 14.1 °C 1006 hPa WSW 6.6 km/h 11.1 km/h 57 % 0 mm
11:17 23.2 °C 14.8 °C 1006 hPa WNW 2.4 km/h 7.4 km/h 59 % 0 mm
11:22 23.4 °C 13.6 °C 1006 hPa WSW 5.8 km/h 9.3 km/h 54 % 0 mm
11:27 23.4 °C 14.7 °C 1006 hPa West 6 km/h 11.1 km/h 58 % 0 mm
11:32 23.5 °C 13.9 °C 1006 hPa West 2.6 km/h 5.6 km/h 55 % 0 mm
11:37 23.6 °C 14.1 °C 1006 hPa SSW 5.6 km/h 18.5 km/h 55 % 0 mm
11:42 23.8 °C 14.2 °C 1006 hPa SSW 5.1 km/h 11.1 km/h 55 % 0 mm
11:52 23.9 °C 14.6 °C 1006.3 hPa WSW 3.9 km/h 11.1 km/h 56 % 0 mm
11:57 24.1 °C 15.1 °C 1006 hPa SW 6 km/h 6.4 km/h 57 % 0 mm
12:02 24.3 °C 14.7 °C 1006 hPa SW 8.7 km/h 14.5 km/h 55 % 0 mm
12:07 24.5 °C 15.2 °C 1006 hPa West 5.8 km/h 7.4 km/h 56 % 0 mm
12:12 24.7 °C 15.1 °C 1006 hPa WSW 4.3 km/h 8 km/h 55 % 0 mm
12:17 24.9 °C 15 °C 1006 hPa SW 4.3 km/h 9.7 km/h 54 % 0 mm
12:23 25.3 °C 15.9 °C 1006 hPa WSW 2.7 km/h 5.6 km/h 56 % 0 mm
12:28 25.6 °C 15.3 °C 1006 hPa WSW 5 km/h 11.1 km/h 53 % 0 mm
12:33 25.8 °C 15.2 °C 1005.6 hPa SW 6.1 km/h 13 km/h 52 % 0 mm
12:38 25.9 °C 14.7 °C 1006 hPa WSW 4.5 km/h 7.4 km/h 50 % 0 mm
12:43 25.9 °C 15 °C 1005.6 hPa SW 6.4 km/h 11.1 km/h 51 % 0 mm
12:48 26.1 °C 14.5 °C 1005.6 hPa SW 6.1 km/h 7.4 km/h 49 % 0 mm
12:53 26.3 °C 15 °C 1005.6 hPa WSW 5.8 km/h 11.1 km/h 50 % 0 mm
12:58 26.4 °C 15.5 °C 1005.3 hPa NW 6.6 km/h 11.1 km/h 51 % 0 mm
13:03 26.5 °C 14.3 °C 1005.3 hPa West 4.7 km/h 14.8 km/h 47 % 0 mm
13:08 26.7 °C 15.1 °C 1005.3 hPa SW 4.5 km/h 6.4 km/h 49 % 0 mm
13:13 26.8 °C 15.2 °C 1005.3 hPa WSW 7.1 km/h 11.3 km/h 49 % 0 mm
13:18 27 °C 15.4 °C 1005.3 hPa SSW 6.1 km/h 14.8 km/h 49 % 0 mm
13:23 27.3 °C 15.6 °C 1005.3 hPa WSW 11.6 km/h 18.5 km/h 49 % 0 mm
13:28 27.4 °C 14.7 °C 1005.3 hPa WSW 11.3 km/h 14.8 km/h 46 % 0 mm
13:33 27.4 °C 15.4 °C 1005 hPa SW 5.3 km/h 11.1 km/h 48 % 0 mm
13:39 27.6 °C 14.9 °C 1005 hPa WSW 5 km/h 11.1 km/h 46 % 0 mm
13:44 27.7 °C 15.7 °C 1005 hPa SW 7.4 km/h 13 km/h 48 % 0 mm
13:49 27.8 °C 14.8 °C 1005 hPa SW 10.3 km/h 16.7 km/h 45 % 0 mm
13:54 27.8 °C 15.5 °C 1005 hPa WSW 2.7 km/h 14.8 km/h 47 % 0 mm
14:00 28 °C 15.6 °C 1005 hPa WSW 5.5 km/h 5.6 km/h 47 % 0 mm
14:05 28.2 °C 14.8 °C 1005 hPa SW 9.3 km/h 18.5 km/h 44 % 0 mm
14:10 28.3 °C 15.3 °C 1005 hPa WSW 8.4 km/h 9.7 km/h 45 % 0 mm
14:15 28.4 °C 15.3 °C 1005 hPa WNW 3.2 km/h 11.1 km/h 45 % 0 mm
14:20 28.6 °C 14.4 °C 1005 hPa West 5 km/h 18.5 km/h 42 % 0 mm
14:25 28.7 °C 13.7 °C 1005 hPa NW 11.3 km/h 18.5 km/h 40 % 0 mm
14:30 28.8 °C 13.9 °C 1005 hPa WNW 13.4 km/h 22.2 km/h 40 % 0 mm
14:35 28.8 °C 13.9 °C 1005 hPa WSW 10.3 km/h 18.5 km/h 40 % 0 mm
14:40 28.9 °C 13.9 °C 1005 hPa WSW 11.6 km/h 20.4 km/h 40 % 0 mm
14:45 28.9 °C 14.3 °C 1005.3 hPa WNW 6.4 km/h 16.7 km/h 41 % 0 mm
14:50 28.9 °C 13.6 °C 1005.3 hPa North 11.4 km/h 18.5 km/h 39 % 0 mm
14:55 28.7 °C 13.7 °C 1005.3 hPa NW 5.6 km/h 16.7 km/h 40 % 0 mm
15:00 28.6 °C 14 °C 1005.3 hPa SW 4.2 km/h 9.3 km/h 41 % 0 mm
15:05 28.4 °C 13.5 °C 1005.6 hPa West 9 km/h 17.7 km/h 40 % 0 mm
15:10 28.2 °C 14.8 °C 1005.6 hPa WSW 4.3 km/h 14.8 km/h 44 % 0 mm
15:15 28 °C 15.3 °C 1005.6 hPa NW 6.1 km/h 12.9 km/h 46 % 0 mm
15:20 27.9 °C 14.8 °C 1005.6 hPa WNW 7.1 km/h 14.8 km/h 45 % 0 mm
15:25 27.7 °C 14.3 °C 1005.6 hPa NW 9.3 km/h 14.8 km/h 44 % 0 mm
15:30 27.8 °C 15.4 °C 1005.6 hPa NW 1.8 km/h 7.4 km/h 47 % 0 mm
15:31 27.8 °C 15.4 °C 1005.6 hPa WNW 1.6 km/h 7.4 km/h 47 % 0 mm
15:36 27.7 °C 14.7 °C 1005.6 hPa NNE 5.5 km/h 11.1 km/h 45 % 0 mm
15:41 27.6 °C 14.2 °C 1005.6 hPa West 8.7 km/h 14.8 km/h 44 % 0 mm
15:46 27.4 °C 14.8 °C 1005.6 hPa West 6.9 km/h 18.5 km/h 46 % 0 mm
15:51 27.3 °C 14.3 °C 1005.6 hPa WNW 5.5 km/h 11.3 km/h 45 % 0 mm
15:56 27.2 °C 12.8 °C 1005.6 hPa ENE 10.8 km/h 18.5 km/h 41 % 0 mm
16:01 27.1 °C 14.5 °C 1005.6 hPa NW 7.7 km/h 12.9 km/h 46 % 0 mm
16:06 27.1 °C 13.8 °C 1005.6 hPa WNW 2.7 km/h 5.6 km/h 44 % 0 mm
16:11 27.1 °C 13.8 °C 1005.6 hPa NNE 2.3 km/h 9.3 km/h 44 % 0 mm
16:16 27.1 °C 14.5 °C 1005.6 hPa WNW 4.2 km/h 7.4 km/h 46 % 0 mm
16:21 27.2 °C 13.5 °C 1005.6 hPa NW 3.7 km/h 5.6 km/h 43 % 0 mm
16:26 27.2 °C 13.8 °C 1005.6 hPa WNW 2.9 km/h 7.4 km/h 44 % 0 mm
16:31 27.3 °C 14 °C 1005.6 hPa NNE 2.4 km/h 7.4 km/h 44 % 0 mm
16:36 27.3 °C 14.3 °C 1005.6 hPa NNW 2.1 km/h 5.6 km/h 45 % 0 mm
16:41 27.4 °C 14.1 °C 1005.6 hPa North 2.9 km/h 11.1 km/h 44 % 0 mm
16:46 27.4 °C 14.1 °C 1005.6 hPa NW 2.7 km/h 5.6 km/h 44 % 0 mm
16:51 27.3 °C 13.7 °C 1005.6 hPa NNE 1.1 km/h 3.7 km/h 43 % 0 mm
16:56 27.3 °C 12.9 °C 1005.6 hPa WNW 1.4 km/h 6.4 km/h 41 % 0 mm
17:01 27.3 °C 12.9 °C 1005.6 hPa WNW 1.6 km/h 5.6 km/h 41 % 0 mm
17:06 27.3 °C 14 °C 1005.6 hPa NNW 0.5 km/h 3.7 km/h 44 % 0 mm
17:11 27.3 °C 13.6 °C 1005.6 hPa NW 1.8 km/h 5.6 km/h 43 % 0 mm
17:16 27.2 °C 13.2 °C 1005.3 hPa NW 2.3 km/h 5.6 km/h 42 % 0 mm
17:21 27.2 °C 12.8 °C 1005.3 hPa NW 1.4 km/h 3.7 km/h 41 % 0 mm
17:26 27.2 °C 12.8 °C 1005.3 hPa Calm   3.7 km/h 41 % 0 mm
17:31 27.3 °C 13.2 °C 1005.6 hPa WSW 2.7 km/h 9.3 km/h 42 % 0 mm
17:36 27.3 °C 13.6 °C 1005.6 hPa Calm   1.9 km/h 43 % 0 mm
17:41 27.2 °C 13.2 °C 1005.3 hPa SW 5 km/h 6.4 km/h 42 % 0 mm
17:46 27.2 °C 12.8 °C 1005.6 hPa SW 2.1 km/h 6.4 km/h 41 % 0 mm
17:51 27.2 °C 13.2 °C 1005.6 hPa SW 1.3 km/h 5.6 km/h 42 % 0 mm
17:56 27.2 °C 13.2 °C 1005.6 hPa SW 3.2 km/h 8 km/h 42 % 0 mm
18:01 27.1 °C 12.7 °C 1005.6 hPa SW 3.2 km/h 5.6 km/h 41 % 0 mm
18:06 26.9 °C 13.3 °C 1005.6 hPa WSW 2.3 km/h 11.1 km/h 43 % 0 mm
18:11 26.9 °C 13.3 °C 1005.6 hPa Calm   1.9 km/h 43 % 0 mm
18:16 26.8 °C 13.2 °C 1005.6 hPa West 0.6 km/h 5.6 km/h 43 % 0 mm
18:21 26.7 °C 13.4 °C 1005.6 hPa West 1.3 km/h 5.6 km/h 44 % 0 mm
18:26 26.7 °C 13.4 °C 1005.6 hPa Calm   1.6 km/h 44 % 0 mm
18:31 26.6 °C 13 °C 1005.6 hPa WSW 2.6 km/h 5.6 km/h 43 % 0 mm
18:36 26.6 °C 13.3 °C 1006 hPa Calm   1.9 km/h 44 % 0 mm
18:41 26.5 °C 13.6 °C 1006 hPa WSW 1.3 km/h 3.2 km/h 45 % 0 mm
18:46 26.4 °C 13.2 °C 1006 hPa WSW 1.3 km/h 3.7 km/h 44 % 0 mm
18:51 26.3 °C 13.4 °C 1006.3 hPa WSW 1.1 km/h 5.6 km/h 45 % 0 mm
18:57 26.2 °C 13.3 °C 1006.3 hPa SW 1.8 km/h 5.6 km/h 45 % 0 mm
19:02 26.2 °C 13.3 °C 1006.3 hPa SW 1.4 km/h 3.7 km/h 45 % 0 mm
19:07 26.1 °C 12.8 °C 1006.3 hPa WSW 1.8 km/h 3.7 km/h 44 % 0 mm
19:12 26 °C 12.8 °C 1006.3 hPa WSW 3.9 km/h 5.6 km/h 44 % 0 mm
19:17 25.9 °C 13.1 °C 1006.3 hPa Calm   1.9 km/h 45 % 0 mm
19:22 25.8 °C 13 °C 1006.3 hPa Calm   3.7 km/h 45 % 0 mm
19:27 25.7 °C 13.2 °C 1006.7 hPa SW 1 km/h 5.6 km/h 46 % 0 mm
19:32 25.7 °C 13.2 °C 1006.7 hPa SW 2.7 km/h 5.6 km/h 46 % 0 mm
19:37 25.6 °C 13.1 °C 1007 hPa SW 2.4 km/h 5.6 km/h 46 % 0 mm
19:42 25.4 °C 13 °C 1007 hPa SW 2.3 km/h 5.6 km/h 46 % 0 mm
19:47 25.3 °C 12.8 °C 1007 hPa SW 0.8 km/h 3.7 km/h 46 % 0 mm
19:52 25.2 °C 12.7 °C 1007 hPa SW 0.5 km/h 3.7 km/h 46 % 0 mm
19:57 24.9 °C 12.8 °C 1007 hPa SW 0.5 km/h 1.9 km/h 47 % 0 mm
20:02 24.8 °C 13 °C 1007 hPa SW 0.6 km/h 3.7 km/h 48 % 0 mm
20:07 24.6 °C 12.9 °C 1007 hPa SW 1.9 km/h 5.6 km/h 48 % 0 mm
20:12 24.4 °C 13.1 °C 1007 hPa Calm     49 % 0 mm
20:17 24.2 °C 13.1 °C 1007.3 hPa Calm     50 % 0 mm
20:22 23.9 °C 13.2 °C 1007.3 hPa Calm   1.9 km/h 51 % 0 mm
20:27 23.7 °C 13.6 °C 1007.3 hPa Calm     53 % 0 mm
20:32 23.4 °C 13.6 °C 1007.3 hPa Calm     54 % 0 mm
20:37 23.2 °C 13.7 °C 1007.3 hPa Calm     55 % 0 mm
20:42 22.9 °C 13.7 °C 1007.3 hPa Calm     56 % 0 mm
20:47 22.7 °C 13.5 °C 1007.3 hPa Calm     56 % 0 mm
20:57 22.2 °C 13.2 °C 1007.7 hPa Calm   1.9 km/h 57 % 0 mm
21:02 21.9 °C 13 °C 1007.7 hPa Calm     57 % 0 mm
21:05 21.8 °C 12.9 °C 1007.7 hPa SW 0.3 km/h 1.9 km/h 57 % 0 mm
21:10 21.6 °C 13 °C 1008 hPa Calm     58 % 0 mm
21:15 21.4 °C 13.1 °C 1008 hPa Calm   1.9 km/h 59 % 0 mm
21:20 21.3 °C 13.2 °C 1008 hPa Calm   1.9 km/h 60 % 0 mm
21:25 21.2 °C 13.2 °C 1008.4 hPa SW 0.2 km/h 1.9 km/h 60 % 0 mm
21:31 21.1 °C 12.7 °C 1008.4 hPa Calm     59 % 0 mm
21:36 21 °C 12.7 °C 1008.4 hPa Calm   1.6 km/h 59 % 0 mm
21:41 20.9 °C 13.1 °C 1008.4 hPa Calm   1.6 km/h 61 % 0 mm
21:46 20.8 °C 13.2 °C 1008.7 hPa Calm     62 % 0 mm
21:51 20.7 °C 13.2 °C 1008.7 hPa Calm   1.6 km/h 62 % 0 mm
21:56 20.6 °C 13.1 °C 1008.7 hPa Calm   1.6 km/h 62 % 0 mm
22:01 20.5 °C 12.9 °C 1009 hPa Calm     62 % 0 mm
22:06 20.4 °C 12.9 °C 1009 hPa Calm     62 % 0 mm
22:11 20.3 °C 13.1 °C 1009 hPa Calm     63 % 0 mm
22:16 20.3 °C 13.2 °C 1009 hPa Calm     64 % 0 mm
22:21 20.2 °C 13.4 °C 1009.4 hPa Calm     65 % 0 mm
22:26 20.1 °C 13.3 °C 1009.4 hPa Calm     65 % 0 mm
22:31 19.9 °C 13.2 °C 1009.4 hPa Calm     65 % 0 mm
22:36 19.8 °C 13.1 °C 1009.4 hPa Calm     65 % 0 mm
22:41 19.7 °C 12.9 °C 1009.4 hPa Calm     65 % 0 mm
22:46 19.6 °C 13.1 °C 1009.7 hPa Calm     66 % 0 mm
22:51 19.6 °C 13.1 °C 1009.7 hPa Calm     66 % 0 mm
22:56 19.4 °C 12.9 °C 1009.7 hPa Calm     66 % 0 mm
23:06 19.3 °C 13 °C 1009.7 hPa Calm     67 % 0 mm
23:11 19.2 °C 12.9 °C 1010 hPa Calm     67 % 0 mm
23:16 19.1 °C 12.8 °C 1010 hPa Calm     67 % 0 mm
23:21 19.1 °C 12.8 °C 1010 hPa Calm     67 % 0 mm
23:27 18.9 °C 12.7 °C 1010 hPa SW 1 km/h 3.2 km/h 67 % 0 mm
23:32 18.9 °C 12.6 °C 1009.7 hPa SW 0.3 km/h 1.9 km/h 67 % 0 mm
23:36 18.9 °C 12.6 °C 1010 hPa Calm     67 % 0 mm
23:41 18.9 °C 12.8 °C 1010 hPa Calm     68 % 0 mm
23:46 18.8 °C 12.8 °C 1010 hPa Calm     68 % 0 mm
23:51 18.8 °C 12.8 °C 1010 hPa Calm   1.9 km/h 68 % 0 mm
23:56 18.8 °C 12.7 °C 1010 hPa Calm   1.9 km/h 68 % 0 mm
Crab Meadow Weather
Compliments of Weather Underground - 2.75 mb

Script developed by  Jim McMurry - jmcmurry@mwt.net Adapted for the template by  Wim van der Kuil - Leuven-Template.eu

Weather Terms: Heavy Sleet Warning - Accumulations of 1/2 inch or more of sleet.